Find Jilin-1 Shipin 5

NORAD ID: 43023 Int'l Des: 2017-074 Owner: CGSTL Country: CN Constellation: jilin-1 operational
LEOCIRCULARRETROGRADESSO

实时位置

正在加载3D地球...

关于 Jilin-1 Shipin 5

正在加载描述...

即将过境

Passes for default location (London). Set your location on the main map for personalized predictions.

高度历史

Loading altitude history...

两行轨道根数

1 43023U 17074B 26106.25744252 .00003762 00000-0 12058-3 0 9994
2 43023 97.4805 211.6425 0006686 90.4695 269.7313 15.32977028464512
Epoch: Apr 16, 2026 • Age: 8 hours

当前状态

高度 470.6 km
速度 7.63 km/s
星下点 -2.75°S, 157.61°E
发射日期 Nov 21, 2017
运行时间 8.3 years
类型 earth observation

技术详情

分类 Payload
质量 95.00 kg
干质量 95.00 kg
总质量 95.00 kg
长度 1.50 m
直径 1.00 m
跨度 1.50 m
形状 Box
制造商 HARB/CIOMP
平台类型 JL-1
阶段状态 In Orbit
所有者/国家 CGSTL/CN

Most Searched